Regional Weather Roundup
Issued by NWS

Home | Current Version | Previous Version | Text Only | Print | Product List | Glossary Off
Versions: 1 2 3 4 5 6 7 8 9 10 11 12 13 14 15 16 17 18 19 20 21 22 23 24 25 26 27 28 29 30 31 32 33 34 35 36 37 38 39 40 41 42 43 44 45 46 47 48 49 50

000
ASUS43 KMKX 180700
RWRWI

WISCONSIN REGIONAL WEATHER ROUNDUP
NATIONAL WEATHER SERVICE MILWAUKEE/SULLIVAN WI
200 AM CDT THU SEP 18 2014

NOTE: "FAIR" INDICATES FEW OR NO CLOUDS BELOW 12,000 FEET WITH NO
SIGNIFICANT WEATHER AND/OR OBSTRUCTIONS TO VISIBILITY.

WIZ001-002-006>008-014>016-023>028-180800-
NORTHWEST WISCONSIN

CITY           SKY/WX    TMP DP  RH WIND       PRES   REMARKS
SUPERIOR ARPT  CLOUDY    43  39  83 SE6       30.15S
ASHLAND        CLOUDY    45  40  82 NE8       30.15S
HAYWARD        CLOUDY    44  41  89 N6        30.12S
SIREN          CLOUDY    46  42  86 E5        30.10S
RICE LAKE      CLEAR     46  44  93 N7        30.10S
LADYSMITH      PTCLDY    46  45  94 NE5       30.12R
EAU CLAIRE     NOT AVBL
MENOMONIE      SUNNY     49  47  93 N6        30.08R
NEW RICHMOND   CLEAR     48  46  95 NE7       30.07S
OSCEOLA        CLEAR     48  48 100 NE3       30.11R
$$

WIZ003>005-009-010-017-018-180800-
NORTH CENTRAL WISCONSIN

CITY           SKY/WX    TMP DP  RH WIND       PRES   REMARKS
WOODRUFF       CLOUDY    43  39  88 NE6       30.12R
RHINELANDER    CLOUDY    45  41  86 VRB3      30.12R
EAGLE RIVER    CLOUDY    41  37  85 NE7       30.12S
LAND O LAKES   CLOUDY    39  37  90 NE7       30.14R WCI  34
PHILLIPS       CLOUDY    46  44  90 NE6       30.10S
TOMAHAWK       CLOUDY    46  42  88 NE3       30.12R
MEDFORD        CLOUDY    47  46  97 E6        30.09R
MERRILL        CLOUDY    50  48  93 CALM      30.10R
$$

WIZ029-030-035-036-043>047-180800-
CENTRAL WISCONSIN

CITY           SKY/WX    TMP DP  RH WIND       PRES   REMARKS
WAUSAU         PTCLDY    47  44  90 E5        30.10R
MOSINEE        CLEAR     46  45  93 E7        30.11R
MARSHFIELD     CLEAR     50  47  89 E9        30.08R
STEVENS POINT  CLEAR     47  43  88 E9        30.10R
WAUPACA        CLOUDY    51  47  86 E8        30.11R
WAUTOMA        NOT AVBL
WISC RAPIDS    CLEAR     50  47  89 E10       30.10R
CAMP DOUGLAS   PTCLDY    46  46 100 VRB1      30.06R
$$

WIZ011>013-019>022-031-037>040-048>050-180800-
NORTHEAST WISCONSIN

CITY           SKY/WX    TMP DP  RH WIND       PRES   REMARKS
ANTIGO         CLOUDY    45  42  91 E7        30.11R
STURGEON BAY   CLOUDY    46  39  76 NE13      30.13R
GREEN BAY      CLOUDY    50  45  83 NE17G24   30.11R
MANITOWOC      CLOUDY    52  46  82 NE8       30.10R
APPLETON       CLOUDY    50  45  81 NE8       30.10R
CLINTONVILLE   PTCLDY    45  41  87 E6        30.11S
OSHKOSH        CLOUDY    52  48  86 NE12      30.09R
$$

WIZ032>034-041-042-053>061-180800-
SOUTHWEST WISCONSIN

CITY           SKY/WX    TMP DP  RH WIND       PRES   REMARKS
LA CROSSE      CLEAR     53  50  89 SE5       30.05R
SPARTA         CLEAR     43  42  98 CALM      30.06R
VIROQUA        FAIR      51  51  97 CALM      30.05S
BOSCOBEL       FOG       50  49  96 CALM      30.06R VSB 1/4
PRAIRIE DU CHI MOCLDY    50  48  93 CALM      30.04S
PLATTEVILLE    FAIR      49  47  94 CALM      30.05R
$$

WIZ056-057-062-063-064-067-068-180800-
SOUTH CENTRAL WISCONSIN

CITY           SKY/WX    TMP DP  RH WIND       PRES   REMARKS
BARABOO/DELLS  FAIR      48  46  94 CALM      30.05S
LONE ROCK      NOT AVBL
WATERTOWN      CLEAR     47  46  99 CALM      30.05R
MADISON        CLEAR     47  46  97 CALM      30.05S FOG
MIDDLETON      FAIR      47  47 100 CALM      30.06R
MONROE         CLEAR     55  48  76 S3        30.05R
JANESVILLE     CLEAR     50  46  87 CALM      30.05R
$$

WIZ051-052-058>065-066-070>072-180800-
SOUTHEAST WISCONSIN

CITY           SKY/WX    TMP DP  RH WIND       PRES   REMARKS
MILWAUKEE      PTCLDY    54  49  83 N14       30.06R
WAUKESHA       CLEAR     46  45  93 CALM      30.06R
MILWAUKEE/TIMM CLEAR     52  46  82 NE7       30.07R
RACINE         CLEAR     51  47  86 W5        30.06R
BURLINGTON     CLEAR     40  40 100 CALM      30.05R
KENOSHA        CLEAR     46  46 100 W3        30.05R FOG
FOND DU LAC    CLOUDY    52  48  86 E10       30.09R
SHEBOYGAN      PTCLDY    50  46  86 N9        30.09R
WEST BEND      CLOUDY    50  46  87 NE8       30.08R
JUNEAU         CLEAR     50  49  97 N8        30.07R FOG
$$

LSZ147-162-180800-
LAKE SUPERIOR

STATION/POSITION TIME  TEMP    WIND        PRES    WAVE
                       AIR SEA DIR/SP/G            HT/PER
                 (UTC) (F)     (DEG/KT/KT) (MB)    (FT/S)
W MID LAKE BUOY  0550   44 47  100/ 12/ 14 1021.8R   3/ 6
DEVILS ISLAND    0600   45      80/ 16/ 17 1022.0R
PORT WING        0640   44      70/  5/  8 1021.3R
SAXON HARBOR     0600   47      70/  5/  7 1021.0R
$$

LMZ867-665-643>646-180800-
LAKE MICHIGAN

STATION/POSITION TIME  TEMP    WIND        PRES    WAVE
                       AIR SEA DIR/SP/G            HT/PER
                 (UTC) (F)     (DEG/KT/KT) (MB)    (FT/S)
N MID LAKE BUOY  0550   48 58   10/ 16/ 21 1019.6R   4/ 5
NORTHPORT PIER   0600   47      30/ 10/ 16 1020.3R
KEWAUNEE LAKESHO 0600   51      40/ 15/ 20 1018.2R
SHEBOYGAN LAKESH 0600   51 49   10/ 19/ 22 1018.7R
PORT WASHINGTON  0640   53     360/  5/ 10 1019.0R
ATWATER BUOY     0600   58     240/  6/  8 1018.1S
MILWAUKEE LAKESH 0600   58     280/  2/  3   N/A
S MID LAKE BUOY  0550   63 65  220/  6/  8 1017.3R   0
KENOSHA   LAKESH 0600   56     250/  3/  4 1016.9S
$$

TC  - TEMPERATURE IN CELSIUS
VSB - VISIBILITY IN STATUTE MILES
WCI - WIND CHILL INDEX
HX  - HEAT INDEX




USA.gov is the U.S. government's official web portal to all federal, state and local government web resources and services.